Weather History for Marrakech, Morocco

Change the Weather History Date:

Thursday, October 27, 2011

  Actual Average Record
Temperature  
Mean Temperature 62 °F -  
Max Temperature 69 °F 71 °F 93 °F (2002)
Min Temperature 55 °F 50 °F 53 °F (2007)
Degree Days  
Heating Degree Days 3    
Growing Degree Days 12 (Base 50)    
Moisture  
Dew Point 57 °F    
Average Humidity 86    
Maximum Humidity 100    
Minimum Humidity 59    
Precipitation  
Precipitation 0.16 in 0.05 in - ()
Sea Level Pressure  
Sea Level Pressure 30.08 in    
Wind  
Wind Speed 4 mph ()    
Max Wind Speed 9 mph    
Max Gust Speed -    
Visibility 4.9 miles    
Events Rain    
Averages and records for this station are not official NWS values.
T = Trace of Precipitation, MM = Missing Value Source: Averaged Metar Reports

Daily Weather History Graph

Daily Weather History Graph

Search for Another Location

Airport:

Trip Planner

Search our weather history database for the weather conditions in past years. The results will help you decide how hot, cold, wet, or windy it might be!

Date:

Astronomy

Oct. 27, 2011 Rise Set
Actual Time 6:43 AM WET 5:47 PM WET
Civil Twilight 6:18 AM WET 6:12 PM WET
Nautical Twilight 5:50 AM WET 6:41 PM WET
Astronomical Twilight 5:21 AM WET 7:09 PM WET
Moon 7:23 AM WET (10/27) 6:13 PM WET (10/27)
Length of Visible Light 11h 53m
Length of Day
11h 03m
New Moon, 1% of the Moon is Illuminated
Oct 27
New Moon
Nov 2
First Quarter
Nov 10
Full
Nov 18
Last Quarter
Nov 25
New

Hourly Weather History & Observations

Time (WET) Temp. Dew Point Humidity Pressure Visibility Wind Dir Wind Speed Gust Speed Precip Events Conditions
12:00 AM 61 °F 53 °F 69% 30.00 in 6 mi West 3.5 mph - -   Scattered Clouds
12:00 AM 60.8 °F 53.6 °F 77% 30.01 in 6.2 mi West 4.6 mph - N/A   Partly Cloudy
3:00 AM 58 °F 54 °F 83% 29.99 in - ESE 4.6 mph - -  
4:30 AM 59.0 °F 53.6 °F 82% 30.01 in 6.2 mi SSE 5.8 mph - N/A   Partly Cloudy
5:00 AM 57.2 °F 53.6 °F 88% 30.01 in 6.2 mi Variable 2.3 mph - N/A   Partly Cloudy
5:30 AM 57.2 °F 53.6 °F 88% 30.01 in 6.2 mi Variable 2.3 mph - N/A   Partly Cloudy
6:00 AM 56 °F 53 °F 87% 30.02 in 6 mi East 2.3 mph - -   Scattered Clouds
6:00 AM 55.4 °F 53.6 °F 94% 30.01 in 6.2 mi East 2.3 mph - N/A   Partly Cloudy
6:30 AM 57.2 °F 53.6 °F 88% 30.01 in 6.2 mi ESE 3.5 mph - N/A   Partly Cloudy
7:00 AM 59.0 °F 53.6 °F 82% 30.04 in 6.2 mi SE 4.6 mph - N/A   Partly Cloudy
7:30 AM 62.6 °F 53.6 °F 72% 30.04 in 6.2 mi SSE 4.6 mph - N/A   Partly Cloudy
8:00 AM 64.4 °F 53.6 °F 68% 30.04 in 6.2 mi SE 5.8 mph - N/A   Scattered Clouds
8:30 AM 64.4 °F 53.6 °F 68% 30.06 in 5.6 mi SE 4.6 mph - N/A   Scattered Clouds
9:00 AM 65 °F 54 °F 59% 30.04 in 6 mi ESE 3.5 mph - -   Mostly Cloudy
9:00 AM 66.2 °F 53.6 °F 64% 30.06 in 6.2 mi ESE 3.5 mph - N/A   Mostly Cloudy
9:30 AM 68.0 °F 55.4 °F 64% 30.09 in 6.2 mi Variable 1.2 mph - N/A   Mostly Cloudy
10:00 AM 64.4 °F 55.4 °F 73% 30.09 in 3.1 mi WNW 9.2 mph - N/A Rain Light Rain
10:24 AM 60.8 °F 59.0 °F 94% 30.12 in 3.7 mi SW 4.6 mph - N/A   Overcast
10:30 AM 60.8 °F 59.0 °F 94% 30.12 in 1.9 mi West 4.6 mph - N/A Rain Heavy Rain
11:00 AM 62.6 °F 59.0 °F 88% 30.12 in 5.0 mi SSW 6.9 mph - N/A   Overcast
11:18 AM 60.8 °F 59.0 °F 94% 30.12 in 1.9 mi WSW 6.9 mph - N/A Rain Light Rain
11:30 AM 60.8 °F 59.0 °F 94% 30.12 in 1.9 mi WSW 6.9 mph - N/A Rain Light Rain
12:00 PM 60.8 °F 60.8 °F 100% 30.09 in 1.2 mi SW 5.8 mph - N/A Rain Light Rain
12:30 PM 62.6 °F 60.8 °F 94% 30.09 in 1.2 mi WSW 6.9 mph - N/A Rain Light Rain
1:00 PM 62.6 °F 60.8 °F 94% 30.09 in 1.2 mi SW 8.1 mph - N/A Rain Light Rain
2:00 PM 60.8 °F 60.8 °F 100% 30.09 in 1.2 mi NNW 5.8 mph - N/A Rain Light Rain
2:30 PM 60.8 °F 60.8 °F 100% 30.09 in 3.1 mi North 4.6 mph - N/A Rain Light Rain
2:49 PM 62.6 °F 60.8 °F 94% 30.09 in 3.1 mi WSW 4.6 mph - N/A Rain Light Rain
3:00 PM 63 °F 59 °F 83% 30.06 in 6 mi West 5.8 mph - -   Clear
3:00 PM 62.6 °F 59.0 °F 88% 30.09 in 6.2 mi West 4.6 mph - N/A   Overcast
3:30 PM 62.6 °F 59.0 °F 88% 30.06 in 6.2 mi SW 5.8 mph - N/A   Overcast
4:00 PM 62.6 °F 59.0 °F 88% 30.06 in 6.2 mi SW 5.8 mph - N/A   Overcast
4:30 PM 62.6 °F 59.0 °F 88% 30.06 in 6.2 mi SW 4.6 mph - N/A   Overcast
5:00 PM 62.6 °F 59.0 °F 88% 30.09 in 6.2 mi WSW 3.5 mph - N/A   Overcast
5:30 PM 62.6 °F 59.0 °F 88% 30.09 in 6.2 mi SW 3.5 mph - N/A   Overcast
6:00 PM 62 °F 59 °F 87% 30.06 in 6 mi SW 4.6 mph - -   Clear
6:00 PM 62.6 °F 59.0 °F 88% 30.09 in 6.2 mi SW 4.6 mph - N/A   Mostly Cloudy
6:30 PM 60.8 °F 59.0 °F 94% 30.09 in 6.2 mi SW 3.5 mph - N/A   Mostly Cloudy
7:00 PM 62.6 °F 57.2 °F 82% 30.09 in 6.2 mi SSW 2.3 mph - N/A   Mostly Cloudy
7:30 PM 62.6 °F 57.2 °F 82% 30.12 in 6.2 mi Variable 2.3 mph - N/A   Scattered Clouds
8:00 PM 60.8 °F 57.2 °F 88% 30.12 in 5.0 mi WSW 1.2 mph - N/A   Scattered Clouds
8:30 PM 59.0 °F 57.2 °F 94% 30.12 in 3.7 mi Variable 2.3 mph - N/A   Scattered Clouds
9:00 PM 61 °F 58 °F 86% 30.10 in 4 mi North 4.6 mph - -   Partly Cloudy
9:00 PM 60.8 °F 59.0 °F 94% 30.12 in 4.3 mi North 4.6 mph - N/A   Scattered Clouds
9:30 PM 59.0 °F 55.4 °F 88% 30.12 in 5.0 mi NNE 6.9 mph - N/A   Scattered Clouds
10:00 PM 59.0 °F 55.4 °F 88% 30.12 in 5.6 mi NE 6.9 mph - N/A   Scattered Clouds
10:30 PM 59.0 °F 55.4 °F 88% 30.12 in 5.0 mi NE 5.8 mph - N/A   Scattered Clouds
11:00 PM 57.2 °F 55.4 °F 94% 30.12 in 4.3 mi ENE 3.5 mph - N/A   Scattered Clouds
11:30 PM 59.0 °F 55.4 °F 88% 30.12 in 5.0 mi ENE 6.9 mph - N/A   Scattered Clouds